Location: Unspecified
(0.0000°N, 0.0000°E)
Time: 01:35:07
(UTC+00:00)

Courier 1B Rocket - Pass Details

Date: 10 October 2020
Orbit: 920 x 1202 km, 28.2° (Epoch: 25 October)

Event Time Altitude Azimuth Distance (km) Brightness Sun altitude
Rises 20:35:29 0° 230° (SW) 4,031 8.9 -41.8°
Reaches altitude 10° 20:38:22 10° 225° (SW) 3,094 8.1 -42.5°
Enters shadow 20:41:39 27° 214° (SW) 2,116 6.9 -43.3°
